EN

Hourly Weather Kyyany

Today, 4 August, Wednesday

Time Temperature Precipitation Wind Pressure Humidity
00:00 +20°C° 0 mm 1 mps 745 mmHg 62%
01:00 +19°C° 0 mm 1 mps 745 mmHg 64%
02:00 +19°C° 0 mm 1 mps 746 mmHg 66%
03:00 +19°C° 0 mm 1 mps 746 mmHg 66%
04:00 +19°C° 0 mm 1 mps 746 mmHg 66%
05:00 +19°C° 0 mm 1 mps 746 mmHg 65%
06:00 +21°C° 0 mm 1 mps 746 mmHg 59%
07:00 +23°C° 0 mm 1 mps 747 mmHg 52%
08:00 +25°C° 0 mm 2 mps 747 mmHg 46%
09:00 +26°C° 0 mm 2 mps 747 mmHg 41%
10:00 +27°C° 0 mm 3 mps 747 mmHg 36%
11:00 +29°C° 0 mm 3 mps 747 mmHg 31%
12:00 +29°C° 0 mm 4 mps 747 mmHg 29%
13:00 +30°C° 0 mm 4 mps 746 mmHg 27%
14:00 +30°C° 0 mm 4 mps 746 mmHg 25%
15:00 +30°C° 0 mm 4 mps 746 mmHg 26%
16:00 +29°C° 0 mm 4 mps 746 mmHg 26%
17:00 +29°C° 0 mm 4 mps 746 mmHg 26%
18:00 +27°C° 0 mm 3 mps 746 mmHg 30%
19:00 +25°C° 0 mm 3 mps 746 mmHg 34%
20:00 +23°C° 0 mm 2 mps 747 mmHg 38%
21:00 +21°C° 0 mm 2 mps 747 mmHg 40%
22:00 +20°C° 0 mm 3 mps 747 mmHg 42%
23:00 +19°C° 0 mm 3 mps 747 mmHg 45%

Tomorrow, 5 August, Thursday

Time Temperature Precipitation Wind Pressure Humidity
00:00 +19°C° 0 mm 3 mps 747 mmHg 47%
01:00 +19°C° 0 mm 3 mps 747 mmHg 49%
02:00 +19°C° 0 mm 2 mps 747 mmHg 51%
03:00 +19°C° 0 mm 2 mps 747 mmHg 51%
04:00 +19°C° 0 mm 2 mps 747 mmHg 52%
05:00 +18°C° 0 mm 2 mps 747 mmHg 53%
06:00 +21°C° 0 mm 3 mps 747 mmHg 48%
07:00 +24°C° 0 mm 3 mps 747 mmHg 42%
08:00 +27°C° 0 mm 4 mps 747 mmHg 37%
09:00 +28°C° 0 mm 4 mps 746 mmHg 33%
10:00 +30°C° 0 mm 4 mps 746 mmHg 30%
11:00 +32°C° 0 mm 4 mps 746 mmHg 27%
12:00 +32°C° 0 mm 4 mps 746 mmHg 26%
13:00 +33°C° 0 mm 4 mps 745 mmHg 25%
14:00 +33°C° 0 mm 4 mps 745 mmHg 24%
15:00 +33°C° 0 mm 4 mps 745 mmHg 25%
16:00 +33°C° 0 mm 4 mps 744 mmHg 25%
17:00 +33°C° 0 mm 4 mps 744 mmHg 25%
18:00 +30°C° 0 mm 3 mps 744 mmHg 30%
19:00 +28°C° 0 mm 3 mps 744 mmHg 34%
20:00 +26°C° 0 mm 3 mps 744 mmHg 38%
21:00 +25°C° 0 mm 3 mps 744 mmHg 41%
22:00 +24°C° 0 mm 3 mps 743 mmHg 43%
23:00 +22°C° 0 mm 3 mps 743 mmHg 45%

Day after tomorrow, 6 August, Friday

Time Temperature Precipitation Wind Pressure Humidity
00:00 +22°C° 0 mm 3 mps 743 mmHg 47%
01:00 +21°C° 0 mm 3 mps 743 mmHg 49%
02:00 +21°C° 0 mm 3 mps 743 mmHg 51%
03:00 +21°C° 0 mm 3 mps 743 mmHg 51%
04:00 +20°C° 0 mm 3 mps 743 mmHg 51%
05:00 +20°C° 0 mm 3 mps 743 mmHg 51%
06:00 +24°C° 0 mm 3 mps 743 mmHg 44%
07:00 +26°C° 0 mm 4 mps 742 mmHg 37%
08:00 +29°C° 0 mm 5 mps 742 mmHg 30%
09:00 +32°C° 0 mm 5 mps 742 mmHg 29%
10:00 +34°C° 0 mm 6 mps 742 mmHg 28%
11:00 +35°C° 0 mm 6 mps 741 mmHg 27%
12:00 +36°C° 0 mm 6 mps 741 mmHg 26%
13:00 +38°C° 0 mm 6 mps 741 mmHg 26%
14:00 +39°C° 0 mm 7 mps 740 mmHg 25%
15:00 +38°C° 0 mm 6 mps 740 mmHg 27%
16:00 +36°C° 0 mm 6 mps 740 mmHg 29%
17:00 +35°C° 0 mm 6 mps 740 mmHg 30%
18:00 +33°C° 0.1 mm 5 mps 740 mmHg 36%
19:00 +30°C° 0.1 mm 4 mps 740 mmHg 43%
20:00 +28°C° 0.1 mm 3 mps 740 mmHg 49%
21:00 +27°C° 0.1 mm 3 mps 740 mmHg 52%
22:00 +26°C° 0.1 mm 2 mps 740 mmHg 55%
23:00 +25°C° 0.1 mm 2 mps 740 mmHg 58%

7 August, Saturday

Time Temperature Precipitation Wind Pressure Humidity
00:00 +25°C° 0.2 mm 2 mps 740 mmHg 61%
01:00 +24°C° 0.2 mm 3 mps 740 mmHg 64%
02:00 +22°C° 0.2 mm 4 mps 740 mmHg 68%
03:00 +22°C° 0.5 mm 3 mps 740 mmHg 71%
04:00 +22°C° 0.5 mm 3 mps 740 mmHg 75%
05:00 +21°C° 0.5 mm 3 mps 740 mmHg 78%
06:00 +21°C° 0.5 mm 3 mps 740 mmHg 78%
07:00 +22°C° 0.5 mm 4 mps 740 mmHg 78%
08:00 +22°C° 0.5 mm 4 mps 740 mmHg 79%
09:00 +22°C° 0.7 mm 4 mps 741 mmHg 77%
10:00 +23°C° 0.7 mm 5 mps 741 mmHg 75%
11:00 +25°C° 0.7 mm 5 mps 741 mmHg 73%
12:00 +28°C° 0.3 mm 5 mps 741 mmHg 60%
13:00 +30°C° 0.3 mm 4 mps 740 mmHg 48%
14:00 +34°C° 0.3 mm 3 mps 740 mmHg 36%
15:00 +34°C° 0.2 mm 3 mps 740 mmHg 36%
16:00 +34°C° 0.2 mm 3 mps 740 mmHg 36%
17:00 +34°C° 0.2 mm 2 mps 740 mmHg 36%
18:00 +30°C° 1.5 mm 2 mps 740 mmHg 48%
19:00 +27°C° 1.5 mm 2 mps 741 mmHg 59%
20:00 +24°C° 1.5 mm 2 mps 741 mmHg 70%
21:00 +24°C° 1.4 mm 2 mps 741 mmHg 74%
22:00 +23°C° 1.4 mm 2 mps 741 mmHg 77%
23:00 +23°C° 1.4 mm 2 mps 742 mmHg 81%

8 August, Sunday

Time Temperature Precipitation Wind Pressure Humidity
00:00 +23°C° 0.3 mm 1 mps 742 mmHg 79%
01:00 +23°C° 0.3 mm 1 mps 742 mmHg 77%
02:00 +23°C° 0.3 mm 1 mps 742 mmHg 76%
03:00 +23°C° 0.3 mm 1 mps 742 mmHg 76%
04:00 +23°C° 0.3 mm 1 mps 742 mmHg 77%
05:00 +22°C° 0.3 mm 1 mps 743 mmHg 78%
06:00 +23°C° 0.5 mm 1 mps 743 mmHg 75%
07:00 +25°C° 0.5 mm 1 mps 743 mmHg 71%
08:00 +26°C° 0.5 mm 1 mps 744 mmHg 68%
09:00 +27°C° 0.1 mm 1 mps 744 mmHg 61%
10:00 +29°C° 0.1 mm 1 mps 744 mmHg 53%
11:00 +31°C° 0.1 mm 1 mps 744 mmHg 46%
12:00 +32°C° 0 mm 1 mps 744 mmHg 43%
13:00 +34°C° 0 mm 2 mps 744 mmHg 40%
14:00 +34°C° 0 mm 2 mps 744 mmHg 36%
15:00 +34°C° 0 mm 2 mps 744 mmHg 37%
16:00 +34°C° 0 mm 2 mps 744 mmHg 38%
17:00 +34°C° 0 mm 2 mps 744 mmHg 38%
18:00 +31°C° 0 mm 2 mps 744 mmHg 41%
19:00 +29°C° 0 mm 2 mps 744 mmHg 43%
20:00 +27°C° 0 mm 2 mps 744 mmHg 46%
21:00 +26°C° 0 mm 2 mps 744 mmHg 46%
22:00 +25°C° 0 mm 2 mps 744 mmHg 45%
23:00 +25°C° 0 mm 2 mps 744 mmHg 45%

9 August, Monday

Time Temperature Precipitation Wind Pressure Humidity
00:00 +24°C° 0 mm 2 mps 744 mmHg 45%
01:00 +24°C° 0 mm 2 mps 744 mmHg 46%
02:00 +24°C° 0 mm 3 mps 744 mmHg 46%
03:00 +22°C° 0 mm 3 mps 744 mmHg 47%
04:00 +22°C° 0 mm 3 mps 744 mmHg 48%
05:00 +22°C° 0 mm 3 mps 744 mmHg 49%
06:00 +25°C° 0 mm 3 mps 744 mmHg 46%
07:00 +27°C° 0 mm 3 mps 744 mmHg 42%
08:00 +29°C° 0 mm 4 mps 744 mmHg 38%
09:00 +30°C° 0 mm 4 mps 744 mmHg 35%
10:00 +33°C° 0 mm 4 mps 744 mmHg 32%
11:00 +35°C° 0 mm 4 mps 744 mmHg 28%
12:00 +36°C° 0 mm 4 mps 744 mmHg 28%
13:00 +36°C° 0 mm 4 mps 744 mmHg 27%
14:00 +37°C° 0 mm 4 mps 744 mmHg 26%
15:00 +37°C° 0 mm 4 mps 744 mmHg 27%
16:00 +36°C° 0 mm 4 mps 744 mmHg 29%
17:00 +36°C° 0 mm 5 mps 744 mmHg 30%
18:00 +34°C° 0 mm 4 mps 744 mmHg 35%
19:00 +30°C° 0 mm 4 mps 744 mmHg 40%
20:00 +28°C° 0 mm 3 mps 744 mmHg 46%
21:00 +27°C° 0 mm 3 mps 744 mmHg 49%
22:00 +26°C° 0 mm 3 mps 744 mmHg 52%
23:00 +26°C° 0 mm 3 mps 744 mmHg 55%
Show more